User: anonymous
Location: Muenchen
(48.1800°N, 11.5800°E)
Time: 19:53:06
(UTC+02:00)
Language:

Cosmos 2233 Rocket - Orbit

View from above orbital plane
View from above orbital plane
View from above satellite
View from above satellite

Ground track
Ground track

The orbit data is extracted from the following two-line orbital elements,

1 22488U 93008B   14272.69965806 -.00000027  00000-0 -42301-4 0  9680
2 22488 082.9397 096.2360 0026687 123.1823 286.5277 13.77635713 87745
Epoch (UTC): 29 September 2014 16:47:30
Eccentricity: 0.0026687
inclination: 82.9397°
perigee height: 952 km
apogee height: 992 km
right ascension of ascending node: 96.2360°
argument of perigee: 123.1823°
revolutions per day: 13.77635713
mean anomaly at epoch: 286.5277°
orbit number at epoch: 8774

The dashed part of the orbit path shows where the satellite is in the earth's shadow,  

DLR